CAPE
1387 1306 1450 1396 1452 1514 1491 1980 1808 1776 1696 1565 1628 1608 1566 1323 1067 1061 1020 887 822 872 976 1403 1668 1691 1733 1627 1600 1622 1534 1292 1263 1352 1312 1260 1030 1178 1304 1358 1378 1410
1350 1425 1295 1323 1292 1477 1739 2047 1938 1697 1582 1416 1346 1368 1550 1622 1330 1118 969 972 837 962 941 1055 1578 1738 1696 1687 1719 1743 1583 1464 1594 2555 1787 1492 1482 1505 1594 1689 1716 1765
1215 1208 1320 1255 1200 1230 1259 1844 1953 1826 1529 1311 1179 1499 1671 1700 1705 1358 1234 1066 935 906 949 920 1220 1645 1705 1709 1758 1724 1524 1291 1404 2619 2017 1738 1736 1758 1745 1868 1874 1816
1239 1261 1292 1264 1241 1036 1308 1653 1741 1627 1645 1595 1668 1726 1807 1706 1616 1525 1271 797 783 741 835 788 980 1319 1562 1598 1605 1572 1520 1394 1287 1934 2019 1936 1968 1927 1898 1922 1943 1900
1234 1172 1077 1150 1269 1313 1358 1534 1491 1533 1556 1762 1876 1798 1639 1488 1284 1242 1315 1281 992 764 783 890 921 1089 1412 1570 1544 1450 1425 1434 1360 1441 1663 1857 1942 1960 1893 1903 1881 1786
1364 1201 1196 1205 1350 1463 1560 1634 1636 1412 1389 1410 1483 1471 1358 1289 1183 1037 1108 1230 998 893 966 884 814 1080 1328 1537 1542 1546 1538 1534 1541 1497 1345 1356 1613 2042 1963 1861 1780 1684
1358 1371 1344 1315 1225 1290 1338 1363 1528 1478 1474 1484 1512 1494 1414 1380 1229 1117 1133 1135 901 796 836 979 778 781 830 1156 1449 1449 1498 1650 1664 1716 1552 1435 1477 1898 2061 1951 1811 1690
1265 1323 1373 1374 1381 1410 1419 1410 1352 1363 1604 1617 1586 1496 1532 1464 1341 1192 1108 1047 975 663 753 761 856 722 715 848 1232 1435 1397 1565 1682 1834 1786 1708 1744 1748 1922 2016 1956 1832
1210 1338 1394 1439 1426 1459 1422 1360 1257 1244 1291 1312 1367 1437 1533 1484 1382 1277 1262 1221 1165 1012 724 539 662 639 682 636 572 1200 1458 1569 1684 1802 1914 1906 1907 1856 1810 1848 1853 1809
1228 1247 1336 1445 1447 1416 1411 1390 1299 1274 1315 1357 1340 1368 1470 1465 1380 1358 1388 1478 1447 1417 1239 1002 872 806 708 647 654 772 1479 1666 1818 1810 1889 1937 1989 1999 1953 1889 1847 1794
1330 1450 1481 1447 1379 1383 1381 1378 1381 1412 1385 1331 1315 1271 1296 1454 1606 1597 1577 1596 1652 1677 1760 1500 996 680 604 588 531 633 988 1785 1960 1963 1925 1993 2006 2025 2431 2055 2021 1931
1037 1101 1122 1323 1294 1338 1384 1403 1398 1388 1384 1372 1337 1193 1240 1658 1851 1735 1677 1686 1751 1846 1758 1324 936 670 588 584 535 562 524 1042 1826 1995 1995 2043 2150 2156 2220 2314 2157 2102
890 932 963 933 1123 1157 1174 1253 1297 1258 1252 1264 1201 1049 1120 1447 1619 1772 1880 1981 2038 1990 1878 1482 1000 878 744 599 527 384 369 537 1333 1763 1842 1884 2041 2283 2358 2446 2336 2237
645 762 858 844 888 1000 1057 1080 1141 1178 1104 1080 1107 1050 911 1184 1454 1578 1721 1763 1796 1792 1751 1565 1135 896 860 824 630 416 629 818 1040 1648 1725 1809 1898 2111 2356 2462 2474 2414
828 720 907 922 891 844 830 852 990 1138 1148 1142 1158 1178 1223 1278 1494 1609 1630 1634 1636 1628 1559 1532 1495 1352 1214 965 722 709 890 1547 1819 1793 1758 1797 1859 1970 2100 2227 2349 2397
912 980 892 921 958 1031 1025 973 906 974 1102 1116 1070 1129 1213 1284 1418 1548 1606 1612 1578 1549 1464 1444 1555 1640 1660 1403 949 716 1042 1606 2000 2072 1944 1861 1865 1898 1958 2054 2152 2216
819 880 1011 1041 1065 1099 1089 995 903 873 907 953 947 1038 1163 1248 1316 1355 1441 1542 1594 1596 1558 1598 1711 1842 1818 1684 1195 1043 1529 1434 1611 1807 2061 1994 1891 1859 1877 1940 1999 2032
831 880 944 1005 996 1073 1082 1075 1067 1001 1064 1073 964 972 1048 1123 1192 1219 1192 1167 1231 1385 1514 1571 1615 1690 1766 1747 1881 1904 2077 1907 1552 1475 1718 1995 2020 1956 1887 1820 1773 1735
858 928 960 999 886 939 1005 934 975 1090 1119 1044 1032 1060 1055 1169 1197 1118 1080 1052 1094 1178 1340 1399 1478 1526 1570 1720 1808 1744 1901 2244 1774 1506 1538 1542 1498 1600 1620 1563 1503 1424
819 804 762 830 891 848 800 1000 1006 1108 1116 1070 1041 1104 1074 1038 1000 957 949 952 1021 1022 1174 1322 1414 1490 1556 1593 1620 1644 1619 1519 1601 1521 1454 1256 1274 1310 1370 1407 1351 1292
812 744 787 879 905 921 935 982 973 1014 1080 1068 1147 996 1019 1086 1099 1123 1056 986 1137 1182 1185 1192 1239 1291 1359 1331 1304 1352 1297 1205 1228 1330 1308 1170 1001 1046 1214 1310 1313 1248
902 838 919 978 916 898 842 915 913 932 1065 1019 1046 1086 1127 962 925 962 1032 1040 1115 1138 1132 1092 1094 1095 1098 1054 1102 1218 1287 1228 1138 1127 1096 1038 953 943 1096 1192 1122 1080
965 1007 1094 950 737 710 788 822 779 805 936 963 988 1076 1083 992 956 808 866 882 827 790 823 911 921 938 932 930 937 983 1064 1070 1033 1082 1138 1120 1038 1011 1043 1080 1077 1019
1063 1206 1102 782 577 713 784 786 760 800 978 1007 961 919 858 768 677 802 796 696 667 678 644 550 487 469 487 535 549 503 514 686 822 912 1038 1091 1114 1065 1011 1010 1011 1112
1150 1199 1039 819 638 705 819 792 707 650 844 930 924 978 958 860 731 770 797 725 686 703 724 667 544 486 504 522 519 505 484 470 329 642 745 762 763 803 850 871 986 1098
1170 1147 1032 873 750 718 779 818 776 772 805 945 955 922 905 850 818 809 789 738 730 758 739 693 678 700 718 718 704 644 593 533 439 529 599 585 568 582 565 687 923 1069
Wind_Speed
18 18 17 19 25 25 24 25 25 24 24 25 25 25 23 21 20 17 16 16 15 14 13 13 13 13 13 13 13 13 12 11 12 13 11 10 10 11 11 11 12 11
17 16 16 20 23 26 28 29 28 25 23 23 24 26 26 26 24 21 19 18 17 16 15 14 13 12 12 13 13 13 12 14 12 15 14 12 11 12 11 11 12 14
18 18 16 16 21 25 26 28 31 32 27 24 25 27 28 28 26 27 28 28 26 20 16 16 14 13 12 13 13 13 13 14 14 15 16 14 13 13 12 13 14 14
15 16 17 16 19 20 20 24 29 29 30 30 28 29 30 30 30 32 32 30 28 28 25 20 14 14 14 14 14 15 14 14 15 16 17 16 15 14 13 14 14 14
17 16 18 17 15 17 21 23 25 28 29 31 32 32 32 33 32 30 28 28 26 25 25 23 18 14 14 15 16 16 16 15 16 17 18 17 15 15 14 14 14 13
16 17 18 18 15 14 20 21 25 27 28 29 30 33 33 35 33 30 27 25 24 24 24 24 22 18 14 15 16 16 16 16 16 17 17 17 16 15 15 14 14 13
14 17 18 18 16 13 17 21 24 26 27 28 31 29 31 33 32 29 28 28 27 25 25 26 26 24 21 16 16 15 16 16 17 17 17 18 17 15 16 16 15 14
14 14 16 18 16 14 15 19 21 23 24 27 26 28 30 29 29 29 29 29 28 29 27 24 21 20 21 20 14 14 14 17 18 18 17 17 17 15 15 16 16 15
18 15 14 14 14 13 14 18 20 22 23 23 26 28 29 29 28 27 27 28 29 25 21 24 23 21 22 22 19 14 15 16 18 18 16 15 15 14 13 15 15 15
20 19 15 14 13 11 11 13 17 19 22 23 27 30 29 29 28 26 26 28 28 24 23 25 22 22 22 21 20 18 15 16 17 17 16 14 14 14 14 14 13 13
21 21 18 15 14 13 10 10 13 15 19 22 26 27 27 28 28 28 30 31 29 27 26 24 25 25 23 23 23 23 20 18 18 17 16 15 14 14 14 13 13 12
21 22 20 18 16 14 9 8 10 14 17 20 23 25 26 26 27 30 30 29 31 30 27 27 26 23 21 24 25 22 20 19 18 17 16 16 15 14 14 15 14 13
21 22 22 21 19 15 12 9 9 12 16 18 20 22 25 27 30 33 34 34 33 32 29 28 28 27 26 25 26 24 22 19 18 18 17 17 16 14 15 16 15 14
20 22 23 23 22 18 13 10 10 10 13 16 19 21 23 25 27 29 31 33 32 30 31 32 31 31 30 27 24 24 24 19 15 17 18 17 16 16 16 16 15 15
19 21 24 25 25 22 16 12 11 11 12 14 17 20 23 24 26 27 29 30 30 30 32 32 30 28 28 26 24 24 24 23 20 19 18 16 17 17 17 17 17 16
19 20 23 25 27 25 20 15 14 14 12 11 13 16 20 24 27 27 28 28 29 30 32 32 30 31 27 20 23 24 25 25 25 23 20 18 18 18 18 18 17 17
20 19 22 24 26 26 24 19 15 15 15 12 11 12 14 18 22 25 26 28 28 29 30 31 32 31 23 23 21 20 25 24 23 24 24 22 20 19 19 19 19 18
21 20 21 23 26 27 25 22 20 19 17 15 12 11 11 14 16 19 22 26 29 29 30 30 30 26 25 28 29 25 23 27 26 26 26 25 24 22 22 23 22 21
21 21 21 23 26 27 27 25 23 21 19 17 14 12 13 13 13 15 17 21 25 28 29 30 30 28 27 25 26 28 27 27 31 30 29 27 25 25 26 26 26 25
21 22 22 23 27 29 27 25 25 22 21 19 19 18 17 16 14 13 15 17 20 22 24 27 30 31 29 27 27 27 28 28 31 31 30 29 27 26 27 28 28 27
21 22 22 23 26 28 28 26 25 24 23 21 19 17 18 17 15 14 15 16 18 20 20 21 25 26 28 29 29 30 29 29 32 31 31 29 28 28 28 27 27 28
21 22 22 24 25 28 30 30 29 27 25 24 22 21 21 19 19 18 17 15 14 15 16 17 19 19 22 26 28 31 30 33 33 31 30 29 29 30 30 30 29 29
21 22 22 23 25 26 29 32 33 30 26 26 23 22 25 23 19 18 17 16 14 14 14 14 15 14 15 18 24 29 34 34 32 33 33 31 30 29 30 30 31 32
20 22 22 23 24 25 28 31 33 34 31 27 26 25 24 23 22 20 20 18 15 13 13 14 14 14 13 14 16 21 27 31 33 34 34 34 33 32 32 31 30 24
20 20 22 22 23 24 27 29 33 34 31 28 25 24 24 24 22 21 21 20 17 14 11 12 15 15 13 13 14 16 20 26 28 31 31 32 35 35 35 34 33 27
20 20 20 21 21 23 26 28 32 36 33 30 27 26 24 24 23 22 21 21 20 17 16 16 17 17 16 13 14 15 17 22 24 24 24 28 31 34 37 38 37 33
Wind_Direction
297 282 268 239 226 221 222 224 224 227 226 225 225 222 218 213 208 206 206 211 214 211 213 217 220 224 226 226 227 229 228 230 230 239 244 247 242 244 240 238 234 234
309 287 264 251 239 223 218 218 219 225 229 228 228 226 225 220 215 210 208 212 215 214 215 218 220 224 227 230 229 229 226 233 236 240 248 246 241 242 239 235 231 229
313 303 287 267 251 230 210 206 208 207 208 212 223 228 228 228 221 217 212 208 208 210 217 217 217 221 227 231 232 231 231 235 240 241 248 249 243 242 235 235 231 231
308 304 294 285 269 250 229 215 213 210 205 203 212 221 225 226 226 225 222 217 217 207 202 209 219 221 226 232 235 234 236 241 243 246 248 245 244 243 237 235 232 226
321 323 304 295 281 252 236 230 223 222 217 210 206 214 218 222 224 222 220 219 213 212 212 207 205 222 230 232 238 239 239 239 239 244 249 248 242 241 235 237 234 230
309 314 311 308 295 258 239 239 237 234 231 223 216 212 215 220 221 220 219 219 220 218 211 208 206 206 227 240 240 241 243 242 239 242 245 247 243 240 238 238 235 231
302 307 311 310 307 273 240 237 238 237 237 234 229 225 223 223 222 218 214 215 216 214 215 213 205 200 202 224 241 239 242 246 244 242 243 242 243 241 238 238 235 230
280 288 299 307 314 295 263 245 240 238 238 236 233 236 238 234 230 225 219 220 221 220 220 224 215 205 204 200 219 240 240 242 245 246 242 242 243 242 242 237 237 232
268 274 281 293 303 295 276 258 247 242 239 233 230 232 241 244 241 236 232 232 233 230 226 234 231 222 225 213 191 219 239 239 244 250 248 245 245 243 241 238 237 235
256 265 275 285 296 295 284 267 254 249 243 235 228 227 233 240 245 243 240 240 243 234 228 233 233 232 234 232 204 198 226 241 242 247 247 244 244 243 240 240 240 237
250 253 257 268 280 282 283 269 258 249 241 236 233 228 230 237 239 242 244 244 244 240 234 237 237 232 231 236 228 201 198 229 242 241 243 242 241 242 242 242 239 240
248 249 249 249 257 268 276 271 255 247 241 236 235 232 230 228 234 238 240 241 242 240 235 234 240 238 236 243 245 233 210 209 233 240 241 242 240 238 239 239 237 235
242 246 248 247 247 249 255 262 265 255 246 241 239 236 233 231 228 228 228 233 237 239 234 234 236 236 234 236 241 242 235 218 214 233 238 240 240 239 238 238 235 232
241 240 243 245 246 244 239 243 256 259 254 247 242 239 238 236 236 234 231 231 235 238 237 239 239 236 233 231 232 235 239 237 229 234 236 237 239 240 241 240 236 233
247 239 239 243 243 242 238 236 242 245 246 249 248 243 240 240 239 237 234 232 232 234 236 239 239 238 241 245 241 237 236 235 238 242 243 240 239 240 243 243 241 239
256 244 237 238 242 242 239 234 242 249 249 250 253 250 242 239 239 238 235 234 234 234 236 237 238 239 245 255 251 245 240 236 237 240 246 247 243 243 243 244 246 245
262 253 243 238 239 241 240 235 236 241 243 250 263 264 249 240 237 236 236 235 235 236 238 238 238 239 248 249 246 249 242 239 240 242 241 243 244 247 249 249 246 246
262 258 250 241 240 239 239 236 237 239 242 245 251 261 258 245 239 238 236 236 236 236 240 243 241 239 238 234 238 243 244 240 238 239 241 240 239 242 245 249 250 248
261 258 252 244 243 234 229 233 234 236 241 245 250 257 256 253 251 245 239 237 237 239 243 243 240 240 243 241 239 242 242 242 238 237 238 239 241 241 244 248 249 248
256 257 253 245 241 240 232 224 226 228 236 239 241 246 248 250 251 245 240 243 244 243 242 242 240 240 245 245 241 240 243 244 240 242 242 240 241 244 247 250 252 252
252 253 251 247 242 236 232 231 229 227 231 240 243 244 243 246 248 241 237 242 244 245 244 243 241 246 248 247 244 243 242 243 239 241 246 248 247 248 248 248 252 256
253 251 250 248 244 236 230 227 226 225 227 233 239 247 247 241 238 235 230 237 244 240 237 237 243 252 255 251 248 245 244 240 240 243 247 247 247 250 249 247 249 254
255 253 250 247 245 240 231 226 225 226 228 229 233 243 247 249 246 241 235 233 237 238 236 237 239 250 254 249 248 250 247 241 241 244 248 248 248 253 255 254 252 254
259 257 254 249 245 242 235 228 225 224 227 227 228 233 240 248 252 246 240 238 236 231 233 232 235 241 255 252 248 247 248 243 243 244 246 248 248 250 253 255 257 269
264 261 259 255 248 242 238 230 225 224 226 226 228 233 234 233 236 241 238 236 234 229 222 231 236 239 253 257 254 250 246 241 244 246 248 249 249 250 252 254 256 261
267 263 260 258 254 246 240 234 227 223 223 223 225 231 231 231 229 230 231 231 233 230 229 230 232 239 249 264 260 255 255 245 244 247 251 253 253 253 254 253 254 256